Location: Newark
(61.1667°N, 29.8833°E)
Time: 10:40:43
(UTC+00:00)

Envisat - Visible Passes

Search period start: 13 November 2019 00:00
Search period end: 23 November 2019 00:00
Orbit: 764 x 766 km, 98.1° (Epoch: 12 November)

Date Brightness Start Highest point End Pass type
(mag) Time Alt. Az. Time Alt. Az. Time Alt. Az.
13 Nov 6.4 03:02:25 10° ENE 03:03:44 11° ENE 03:05:02 10° E visible
13 Nov 4.3 04:39:15 10° NNE 04:44:09 45° E 04:49:00 10° S visible
13 Nov 3.5 14:25:41 10° SE 14:30:23 39° ENE 14:35:07 10° N visible
13 Nov 3.7 16:04:21 10° S 16:09:20 56° WSW 16:14:23 10° NNW visible
13 Nov 6.0 17:46:53 10° WSW 17:49:32 14° W 17:52:11 10° NW visible
14 Nov 5.3 04:02:42 10° NNE 04:07:01 27° E 04:11:18 10° SSE visible
14 Nov 3.0 15:27:22 10° SSE 15:32:29 88° ENE 15:37:37 10° NNW visible
14 Nov 5.3 17:08:07 10° SW 17:12:11 24° W 17:16:15 10° NW visible
15 Nov 6.0 03:26:34 10° NE 03:29:43 16° E 03:32:51 10° ESE visible
15 Nov 3.6 05:04:41 10° NNE 05:09:46 65° ESE 05:14:50 10° S visible
15 Nov 3.1 14:50:49 10° SE 14:55:45 54° ENE 15:00:44 10° NNW visible
15 Nov 4.4 16:30:15 10° SSW 16:35:01 39° W 16:39:48 10° NNW visible
16 Nov 4.6 04:28:00 10° NNE 04:32:47 38° E 04:37:31 10° SSE visible
16 Nov 3.6 14:14:38 10° ESE 14:19:12 35° NE 14:23:47 10° N visible
16 Nov 3.4 15:52:57 10° S 15:58:01 66° WSW 16:03:07 10° NNW visible
16 Nov 5.8 17:34:53 10° WSW 17:38:04 16° W 17:41:16 10° NW visible
17 Nov 5.6 03:51:34 10° NE 03:55:37 23° E 03:59:38 10° SE visible
17 Nov 2.9 15:16:07 10° SSE 15:21:12 76° ENE 15:26:19 10° NNW visible
17 Nov 5.1 16:56:27 10° SSW 17:00:46 27° W 17:05:07 10° NNW visible
18 Nov 6.1 03:15:40 10° NE 03:18:15 14° E 03:20:49 10° ESE visible
18 Nov 3.9 04:53:25 10° NNE 04:58:28 55° ESE 05:03:27 10° S visible
18 Nov 3.2 14:39:40 10° SE 14:44:31 47° ENE 14:49:25 10° NNW visible
18 Nov 4.1 16:18:47 10° S 16:23:39 45° W 16:28:34 10° NNW visible
18 Nov 6.2 18:02:35 10° W 18:04:03 11° WNW 18:05:31 10° WNW visible
19 Nov 4.9 04:16:48 10° NNE 04:21:25 33° E 04:25:59 10° SSE visible
19 Nov 3.7 14:03:36 10° ESE 14:08:01 31° NE 14:12:26 10° N visible
19 Nov 3.2 15:41:37 10° SSE 15:46:43 77° WSW 15:51:51 10° NNW visible
19 Nov 5.6 17:23:01 10° SW 17:26:37 19° W 17:30:14 10° NW visible
20 Nov 5.8 03:40:27 10° NE 03:44:11 20° E 03:47:53 10° SE visible
20 Nov 3.2 05:18:55 10° NNE 05:24:03 80° ESE 05:29:09 10° SSW visible
20 Nov 2.9 15:04:54 10° SSE 15:09:56 66° ENE 15:15:00 10° NNW visible
20 Nov 4.8 16:44:51 10° SSW 16:49:23 32° W 16:53:56 10° NNW visible
21 Nov 6.2 03:04:59 10° NE 03:06:45 12° ENE 03:08:32 10° E visible
21 Nov 4.2 04:42:10 10° NNE 04:47:07 47° E 04:52:02 10° S visible
21 Nov 3.4 14:28:34 10° SE 14:33:19 41° ENE 14:38:05 10° N visible
21 Nov 3.8 16:07:20 10° S 16:12:18 53° W 16:17:19 10° NNW visible
21 Nov 6.0 17:50:11 10° WSW 17:52:33 13° WNW 17:54:57 10° NW visible
22 Nov 5.2 04:05:37 10° NNE 04:10:01 28° E 04:14:24 10° SSE visible
22 Nov 3.0 15:30:19 10° SSE 15:35:25 88° WSW 15:40:34 10° NNW visible
22 Nov 5.4 17:11:14 10° SW 17:15:11 22° W 17:19:09 10° NW visible
